AO-07 1 07530U 74089B 18297.92316698 -.00000041 00000-0 23235-4 0 9999 2 07530 101.7059 263.3782 0012468 083.8259 294.1362 12.53635093010619 UO-11 1 14781U 84021B 18297.68008146 .00000084 00000-0 16456-4 0 9994 2 14781 097.6371 328.2868 0009055 027.4834 332.6857 14.83038813842636 LO-19 1 20442U 90005G 18297.88380752 -.00000012 00000-0 11837-4 0 9992 2 20442 098.6202 235.6313 0012629 124.4197 235.8182 14.32907776502408 HUBBLE 1 20580U 90037B 18297.55378161 .00000503 00000-0 19784-4 0 9998 2 20580 028.4704 339.8734 0002969 092.0060 061.0086 15.09118040364948 MET-2/21 1 22782U 93055A 18297.67873748 -.00000029 00000-0 -40053-4 0 9999 2 22782 082.5502 351.1676 0023424 122.1039 029.0487 13.83813350269818 AO-27 1 22825U 93061C 18297.94106802 -.00000009 00000-0 14639-4 0 9992 2 22825 098.8784 276.5045 0007962 335.5592 024.5211 14.30042578307841 IO-26 1 22826U 93061D 18297.92782005 -.00000009 00000-0 14273-4 0 9990 2 22826 098.8724 276.5124 0008325 323.9419 036.1200 14.30374722308057 FO-29 1 24278U 96046B 18297.92895463 -.00000054 00000-0 -21939-4 0 9990 2 24278 098.5145 118.8028 0351070 134.1528 228.9051 13.53086553095533 NOAA-15 1 25338U 98030A 18298.50132594 .00000024 00000-0 28843-4 0 9993 2 25338 98.7647 314.9913 0010049 203.7615 156.3102 14.25880515 63592 GO-32 1 25397U 98043D 18297.91227212 -.00000012 00000-0 13697-4 0 9997 2 25397 098.6606 236.2617 0001816 041.3670 318.7646 14.23653606053961 ISS 1 25544U 98067A 18298.51635846 .00001514 00000-0 30392-4 0 9998 2 25544 51.6406 89.2479 0003892 336.3122 134.3245 15.53861856138782 NO-44 1 26931U 01043C 18297.34948445 -.00000055 00000-0 10661-4 0 9996 2 26931 067.0507 256.1237 0006990 259.1060 100.9254 14.30520913890951 SO-50 1 27607U 02058C 18297.80442858 -.00000010 00000-0 19481-4 0 9992 2 27607 064.5560 053.8115 0076697 301.6678 057.6959 14.75490416851959 CO-55 1 27844U 03031E 18297.48531262 .00000052 00000-0 43141-4 0 9994 2 27844 098.6876 304.2381 0009830 004.0969 356.0287 14.22139949794533 CO-57 1 27848U 03031J 18297.83265024 .00000034 00000-0 35553-4 0 9995 2 27848 098.6959 305.0196 0009918 013.7854 346.3592 14.21740743794450 RS-22 1 27939U 03042A 18297.78385690 .00000184 00000-0 41433-4 0 9994 2 27939 098.0085 073.7172 0014262 097.4252 262.8582 14.66726062805818 NOAA-18 1 28654U 05018A 18298.45460245 .00000019 00000-0 35424-4 0 9999 2 28654 99.1317 336.4725 0015228 120.4872 239.7805 14.12388129692177 CO-58 1 28895U 05043F 18297.83166821 .00000112 00000-0 30266-4 0 9991 2 28895 097.9274 084.1787 0017254 024.2147 335.9863 14.63594017692606 Falconsat-3 1 30776U 07006E 18297.91221759 .00002559 00000-0 74783-4 0 9993 2 30776 035.4348 160.5792 0001863 142.5926 217.4930 15.35113652644269 CO-65 1 32785U 08021C 18297.81830816 .00000221 00000-0 29533-4 0 9999 2 32785 097.5473 303.8096 0012378 334.9565 025.1050 14.88194292568388 AAUSAT2 1 32788U 08021F 18297.51641085 .00000167 00000-0 20535-4 0 9999 2 32788 097.5137 318.5876 0010336 275.9465 084.0578 14.94487716569396 DO-64 1 32789U 08021G 18297.92092521 .00000812 00000-0 59199-4 0 9995 2 32789 097.4978 349.3672 0011688 208.3179 151.7415 15.06395077571216 CO-66 1 32791U 08021J 18297.02307392 .00000241 00000-0 29959-4 0 9991 2 32791 097.5331 308.6819 0012214 314.4459 045.5760 14.90654603568629 RS-30 1 32953U 08025A 18297.86038064 .00000020 00000-0 75656-4 0 9994 2 32953 082.4986 292.0301 0018006 288.3699 071.5424 12.43086233472882 PRISM 1 33493U 09002B 18297.70017160 .00000822 00000-0 78084-4 0 9995 2 33493 098.1194 204.6921 0014113 246.1031 113.8710 14.96378434529711 NOAA-19 1 33591U 09005A 18298.49595291 .00000016 00000-0 33932-4 0 9998 2 33591 99.1571 279.2014 0013441 324.7638 35.2643 14.12314420500567 TISAT-1 1 36799U 10035E 18297.85222368 .00000332 00000-0 39679-4 0 9992 2 36799 098.1252 077.6599 0013248 138.8307 221.3912 14.90914007449275 JUGNU 1 37839U 11058B 18297.40838624 .00000320 00000-0 28865-4 0 9995 2 37839 019.9627 333.6701 0018733 231.0904 247.2960 14.12632437363555 SRMSAT 1 37841U 11058D 18297.61640500 .00000303 00000-0 21164-4 0 9991 2 37841 019.9732 024.2796 0011957 111.7549 027.6398 14.10617300363085 AO-71 1 37854U 11061E 18297.79823977 .00000752 00000-0 46762-4 0 9998 2 37854 101.7075 069.1649 0162520 049.0096 312.5044 15.05834548380888 HRBE 1 37855U 11061F 18297.81273591 .00000830 00000-0 49915-4 0 9993 2 37855 101.7199 066.6738 0175407 058.5132 303.3088 15.04828825380674 ALMASAT-1 1 38078U 12006B 18297.88272211 .00021363 40274-5 16251-3 0 9998 2 38078 069.4325 215.9678 0218181 268.5606 205.5398 15.47752038360675 HORYU-2 1 38340U 12025D 18297.93082888 .00000182 00000-0 34678-4 0 9994 2 38340 098.3576 324.0516 0012165 152.9388 207.2456 14.75616793335837 RS-40 1 38735U 12041C 18297.66611136 .00000012 00000-0 15736-4 0 9990 2 38735 082.4809 015.8849 0017186 035.0621 325.1589 12.42577557283117 BEESAT-3 1 39135U 13015F 18297.58079110 .00001326 00000-0 76705-4 0 9990 2 39135 064.8681 083.2947 0009489 242.8630 117.1529 15.16955657303882 BEESAT-2 1 39136U 13015G 18297.86035525 .00001104 00000-0 66465-4 0 9990 2 39136 064.8691 085.5343 0010710 242.0909 117.9133 15.16412216303865 ZACUBE-1 1 39417U 13066B 18297.49891002 .00000228 00000-0 34991-4 0 9992 2 39417 097.5786 319.1744 0060584 091.5768 269.2387 14.80998066265939 TRITON-1 1 39427U 13066M 18297.96936596 .00000143 00000-0 30912-4 0 9998 2 39427 097.6523 285.3742 0113309 202.9560 156.6559 14.67731605263425 GOMX-1 1 39430U 13066Q 18297.91198325 .00000163 00000-0 39047-4 0 9997 2 39430 097.7129 265.5461 0150188 281.4527 076.9840 14.59145853262073 LO-74 1 39440U 13066AA 18297.92061968 .00000217 00000-0 37022-4 0 9992 2 39440 097.6002 305.4429 0081488 133.4764 227.3261 14.75738146263853 AO-73 1 39444U 13066AE 18297.49352008 .00000278 00000-0 40450-4 0 9992 2 39444 097.5788 320.8555 0059692 086.6337 274.1703 14.81794866264215 SPROUT 1 39770U 14029E 18297.66272140 .00000694 00000-0 83566-4 0 9998 2 39770 097.8808 037.6789 0010007 137.6056 222.5948 14.87024575239609 DUCHIFAT-1 1 40021U 14033M 18297.83798315 .00000387 00000-0 45484-4 0 9996 2 40021 097.9143 216.7771 0014274 108.4919 251.7851 14.90421765236260 NANOSATCBR1 1 40024U 14033Q 18297.74233225 .00000323 00000-0 39617-4 0 9994 2 40024 097.9064 214.6578 0013522 111.3336 248.9326 14.89668290235648 EO-79 1 40025U 14033R 18297.73093893 .00000284 00000-0 36263-4 0 9999 2 40025 097.9012 212.8320 0013704 115.9125 244.3506 14.88797621235555 DTUSAT-2 1 40030U 14033W 18297.73030065 .00000256 00000-0 33630-4 0 9991 2 40030 097.8949 211.3538 0013213 111.4122 248.8506 14.88399453235490 EO-80 1 40032U 14033Y 18297.92806801 .00000270 00000-0 35151-4 0 9999 2 40032 097.8957 211.5528 0013172 111.4184 248.8439 14.88338811235502 ANTELSAT 1 40034U 14033AA 18297.86623941 .00000217 00000-0 39527-4 0 9998 2 40034 097.7904 169.6272 0059595 139.1371 221.4329 14.73987468233255 VELOX-1 1 40057U 14034E 18297.79713969 .00000263 00000-0 44442-4 0 9999 2 40057 098.2144 051.1693 0009628 272.6382 087.3726 14.77513356232783 DAURIA DX 1 1 40071U 14037C 18297.85324209 .00000094 00000-0 19543-4 0 9996 2 40071 098.3941 075.1448 0007275 265.3278 094.7104 14.81201149232194 UKUBE-1 1 40074U 14037F 18297.62315053 .00001238 00000-0 15617-3 0 9999 2 40074 098.4062 081.5722 0003273 258.7876 101.2953 14.83902333232496 HODOYOSHI-1 1 40299U 14070B 18297.89461957 .00000529 00000-0 25353-4 0 9990 2 40299 097.3703 017.3344 0013687 148.6328 323.5508 15.23073312220225 CHUBUSAT-1 1 40300U 14070C 18297.90495708 .00000516 00000-0 25678-4 0 9992 2 40300 097.3542 012.7737 0020593 163.6499 315.4346 15.21759412220000 QSAT-EOS 1 40301U 14070D 18297.91466019 .00001550 00000-0 64088-4 0 9994 2 40301 097.3512 014.6313 0027060 151.9366 296.6090 15.25171964220198 FIREBIRD FU3 1 40377U 15003B 18297.75657706 .00001433 00000-0 61503-4 0 9990 2 40377 099.0829 225.1843 0130154 159.0707 201.5919 15.17741100205964 FIREBIRD FU4 1 40378U 15003C 18297.61285684 .00001421 00000-0 60981-4 0 9994 2 40378 099.0832 225.0763 0130370 159.4321 201.2226 15.17748082205947 GRIFEX 1 40379U 15003D 18297.50403853 .00001046 00000-0 49435-4 0 9997 2 40379 099.0834 220.4191 0137398 174.4088 185.8713 15.14721400205667 NO-84 1 40654U 15025D 18297.26881452 .00010716 00000-0 16262-3 0 04423 2 40654 054.9875 172.3033 0154630 078.6797 283.1638 15.42748268075753 NO-83 1 40655U 15025E 18297.45060021 .00034843 00000-0 30232-3 0 05191 2 40655 054.9697 098.2858 0096199 121.9376 239.1102 15.62918487076456 DEORBITSAIL 1 40719U 15032E 18297.75908151 .00000420 00000-0 67470-4 0 9999 2 40719 097.9289 189.0611 0016586 355.1643 004.9404 14.76545047177296 NUDT-PHONESAT 1 40900U 15049B 18297.79141204 .00001787 00000-0 81623-4 0 9994 2 40900 097.4418 304.5946 0011746 300.3494 048.5159 15.21837649171615 XW-2A 1 40903U 15049E 18297.89707439 .00001610 00000-0 41094-4 0 9999 2 40903 097.3717 333.9859 0012332 285.3416 198.9812 15.40979889173775 XW-2C 1 40906U 15049H 18297.95329878 .00000350 00000-0 22024-4 0 9998 2 40906 097.4633 299.1059 0013708 304.8951 085.1978 15.15363676171142 XW-2D 1 40907U 15049J 18297.95834933 .00000410 00000-0 25076-4 0 9999 2 40907 097.4608 298.7964 0012881 301.8605 088.4404 15.15528006171150 LILACSAT-2 1 40908U 15049K 18297.87676225 .00000573 00000-0 35500-4 0 9992 2 40908 097.4726 297.9014 0014830 306.1585 170.8435 15.13618287170989 XW-2E 1 40909U 15049L 18297.86208535 .00000939 00000-0 50428-4 0 9999 2 40909 097.4584 300.9694 0012512 300.8718 178.3655 15.17290928171277 XW-2F 1 40910U 15049M 18297.73986870 .00000914 00000-0 49830-4 0 9990 2 40910 097.4608 300.1323 0013617 297.7930 116.9763 15.16807380171097 XW-2B 1 40911U 15049N 18297.86500297 .00000729 00000-0 41963-4 0 9993 2 40911 097.4640 299.2868 0012830 302.6469 176.1737 15.15469753171035 DCBB 1 40912U 15049P 18297.87448184 .00001039 00000-0 52771-4 0 9995 2 40912 097.4515 303.4022 0013589 281.4223 197.7254 15.19059919171352 TW-1C 1 40926U 15051B 18297.90687589 .00008865 00000-0 15312-3 0 9994 2 40926 097.1715 339.7160 0010608 154.9178 331.0363 15.51161375173401 TW-1A 1 40928U 15051D 18297.85825409 .00002149 00000-0 56969-4 0 9998 2 40928 097.1750 329.2516 0010691 203.8761 277.6275 15.39376820172725 IO-86 1 40931U 15052B 18297.33835820 .00000670 00000-0 42571-5 0 9996 2 40931 006.0007 309.1443 0013077 034.3361 325.7860 14.76588575166127 LQSat 1 40958U 15057A 18297.83943982 -.00000005 00000-0 69446-5 0 9997 2 40958 097.9288 008.0494 0016922 282.6142 077.3163 14.73052935163940 AO-85 1 40967U 15058D 18298.24244498 .00000012 00000-0 19514-4 0 04925 2 40967 064.7768 156.3987 0213699 274.5427 083.1308 14.75803586072847 ATHENOXAT-1 1 41168U 15077C 18297.84316032 .00002089 00000-0 76917-4 0 9997 2 41168 014.9867 151.1415 0012439 038.4041 060.8343 15.13080703158044 ChubuSat-2 1 41338U 16012B 18297.94148544 .00000350 00000-0 20581-4 0 9993 2 41338 031.0026 209.2219 0013940 277.8340 082.0712 15.00044558147336 ChubuSat-3 1 41339U 16012C 18297.80616704 .00000287 00000-0 15604-4 0 9996 2 41339 031.0114 208.4973 0013695 284.0635 075.8484 15.00226913147307 Horyu-4 1 41340U 16012D 18297.92555065 .00000516 00000-0 32657-4 0 9995 2 41340 031.0045 201.3259 0014131 299.3805 060.5420 15.01088547147407 OUFTI-1 1 41458U 16025C 18297.83199915 .00000821 00000-0 46175-4 0 9996 2 41458 098.1242 007.5503 0170124 072.9357 289.0397 15.05076229136946 e-st@r-II 1 41459U 16025D 18297.86334675 .00001514 00000-0 81770-4 0 9994 2 41459 098.1263 007.3704 0170994 074.0376 287.9583 15.04784480136926 AAUSAT4 1 41460U 16025E 18297.84487568 .00001927 00000-0 10135-3 0 9998 2 41460 098.1192 008.0719 0162026 068.8614 292.9838 15.06375841137004 LO-87 1 41557U 16033B 18297.81797735 .00001185 00000-0 47362-4 0 9990 2 41557 097.4322 021.6228 0014367 057.0908 303.1711 15.27038975133945 NuSat2 1 41558U 16033C 18297.81005314 .00001331 00000-0 50618-4 0 9997 2 41558 097.4342 021.9294 0014555 061.6349 298.6356 15.28479346133948 Lapan A3 1 41603U 16040E 18297.86910881 .00000014 00000-0 38439-5 0 9990 2 41603 097.3974 356.9286 0014322 141.6338 338.1386 15.19621962129772 Swayam 1 41607U 16040J 18297.86703536 .00001529 00000-0 68625-4 0 9992 2 41607 097.3992 358.9755 0014812 138.6998 221.5362 15.22612308129835 Pratham 1 41783U 16059A 18297.61164834 .00000062 00000-0 21360-4 0 9998 2 41783 098.1031 356.9797 0034553 050.8471 309.5793 14.62950648110887 AlSat 1N 1 41789U 16059G 18297.73322403 .00000048 00000-0 18207-4 0 9995 2 41789 098.1056 358.5903 0029267 042.0340 318.3095 14.64188518110975 ScatSat 1 41790U 16059H 18297.69091552 .00000024 00000-0 17129-4 0 9996 2 41790 098.2449 343.0293 0019349 056.4417 303.8623 14.50877634109961 TY-1 1 41844U 16066D 18297.86891384 .00001388 00000-0 60783-4 0 9992 2 41844 097.4071 303.1509 0014080 306.3136 173.9204 15.23631378108629 Pegasus-1 1 41846U 16066F 18297.52475268 .00000165 00000-0 36315-4 0 9992 2 41846 098.7436 328.5747 0367333 222.8900 134.3098 14.37424912102486 CAS-2T 1 41847U 16066G 18297.95725518 .00000076 00000-0 22574-4 0 9999 2 41847 098.7389 329.5073 0365485 218.7644 138.6800 14.37931165102977 TO-89 1 41932U 98067KU 18297.65350825 .00097109 00000-0 32437-3 0 9998 2 41932 051.6291 028.5326 0005770 348.2500 011.8370 15.89393972101257 AOBA-V3LOX3 1 41935U 98067KX 18298.42586997 .00644118 24686-3 50294-3 0 9996 2 41935 51.6273 11.6945 0009648 3.2827 356.8253 16.14038118101640 EO-88 1 42017U 17008BX 18297.91599541 .00001492 00000-0 63013-4 0 9993 2 42017 097.4347 002.1328 0004734 287.5840 072.4881 15.24827874093839 HAVELSAT 1 42700U 98067LH 18297.76547365 .00063267 00000-0 32320-3 0 9990 2 42700 051.6295 048.1957 0004094 004.8374 355.2666 15.80726160082447 SOMP2 1 42701U 98067LJ 18297.73693164 .00050584 00000-0 28438-3 0 9990 2 42701 051.6354 051.0634 0003993 355.7299 004.3668 15.78709773082396 PHOENIX 1 42706U 98067LP 18297.86418781 .00037155 00000-0 24311-3 0 9994 2 42706 051.6327 052.6903 0002215 322.3384 037.7460 15.75423320082307 X-CubeSat 1 42707U 98067LQ 18297.72844080 .00078237 00000-0 36655-3 0 9995 2 42707 051.6306 047.1015 0003841 332.5182 027.5617 15.82512420082357 qbee 1 42708U 98067LR 18297.90751552 .00065711 00000-0 34170-3 0 9990 2 42708 051.6307 048.4104 0002669 336.7113 023.3767 15.80329334082313 ZA-AeroSat 1 42713U 98067LU 18297.88422947 .00038845 00000-0 27120-3 0 9991 2 42713 051.6334 056.5690 0002791 311.1906 048.8852 15.73897739081915 UPSat 1 42716U 98067LX 18297.71208533 .00301834 49458-4 57390-3 0 9996 2 42716 051.6255 035.5781 0008375 350.6927 009.3926 16.00091004082303 SpaceCube 1 42717U 98067LY 18297.94535549 .00065160 00000-0 34112-3 0 9994 2 42717 051.6266 048.5916 0003649 000.0038 000.0963 15.80181572081392 Hoopoe 1 42718U 98067LZ 18297.74335558 .00121376 00000-0 43186-3 0 9994 2 42718 051.6274 042.6666 0005153 346.1392 013.9470 15.88047965081456 NJUST-1 1 42722U 98067MB 18297.93060277 .00029831 00000-0 22372-3 0 9990 2 42722 051.6364 058.9542 0004407 000.5593 101.7027 15.72346295080958 UNSW-EC0 1 42723U 98067MC 18297.73506958 .00163668 21151-4 48629-3 0 9994 2 42723 051.6374 041.2342 0007143 350.0326 010.0538 15.92121019081159 LO-90 1 42725U 98067ME 18297.87847428 .00047479 00000-0 28361-3 0 9999 2 42725 051.6366 053.3254 0003879 357.9310 098.5888 15.77378773080937 nSIGHT1 1 42726U 98067MF 18297.75373849 .00012794 00000-0 13781-3 0 9990 2 42726 051.6384 073.1432 0004836 359.9991 000.1003 15.64087076080664 SNUSAT 1B 1 42727U 98067MG 18297.94023551 .00048871 00000-0 29331-3 0 9997 2 42727 051.6332 053.1126 0006085 331.5543 028.5125 15.77245437080900 QBITO 1 42728U 98067MH 18297.73947980 .00066076 00000-0 33311-3 0 9996 2 42728 051.6346 049.6420 0003745 345.4665 014.6229 15.80999039080776 Aalto-2 1 42729U 98067MJ 18297.74199668 .00074032 00000-0 35598-3 0 9990 2 42729 051.6291 048.7771 0003568 343.8476 016.2412 15.81977840080791 SUSat 1 42730U 98067MK 18297.73036388 .00050876 00000-0 29211-3 0 9995 2 42730 051.6348 052.5104 0003275 348.2274 011.8650 15.78240321080742 i-INSPIRE II 1 42731U 98067ML 18297.71418180 .00200313 26602-4 52740-3 0 9994 2 42731 051.6322 039.4504 0008062 336.1945 023.8688 15.94325786080957 PolyITAN-2-SAU 1 42732U 98067MM 18297.75670004 .00074306 00000-0 35508-3 0 9998 2 42732 051.6322 048.1070 0006034 323.4136 036.6454 15.82094173080842 ExAlta-1 1 42734U 98067MP 18297.68567838 .00280662 43726-4 56510-3 0 9998 2 42734 051.6218 037.5748 0009405 347.5681 012.5095 15.99083797080920 Aoxiang-1 1 42735U 98067MQ 18297.86870613 .00031070 00000-0 22698-3 0 9998 2 42735 051.6351 058.4171 0005279 358.6415 146.0658 15.72938456082083 BeEagleSat 1 42736U 98067MR 18297.92431235 .00042796 00000-0 27414-3 0 9997 2 42736 051.6326 054.5562 0005422 352.2112 007.8803 15.75829130080839 CAS-4B 1 42759U 17034B 18297.78652226 .00000173 00000-0 24148-4 0 9991 2 42759 043.0187 091.7350 0009759 206.0665 290.4652 15.09401355075038 CAS-4A 1 42761U 17034D 18297.83090598 .00000215 00000-0 26749-4 0 9994 2 42761 043.0179 091.1804 0010452 207.6368 305.4431 15.09477863075038 UCLSat 1 42765U 17036A 18297.39812903 .00001236 00000-0 56848-4 0 9990 2 42765 097.3864 355.0810 0011306 351.9275 008.1778 15.22162116074951 NIUSat 1 42766U 17036B 18297.90942690 .00000957 00000-0 46619-4 0 9999 2 42766 097.3862 354.5704 0015083 335.7784 024.2741 15.20648294074242 LituanicaSAT 2 1 42768U 17036D 18297.94859753 .00001925 00000-0 87465-4 0 9992 2 42768 097.3884 355.1786 0014700 337.2687 022.7896 15.21874644074299 Aalto 1 1 42775U 17036L 18297.84615365 .00000769 00000-0 37757-4 0 9992 2 42775 097.3852 354.7722 0013362 337.0514 023.0123 15.20958975074204 URSA MAIOR 1 42776U 17036M 18297.89099566 .00000838 00000-0 40786-4 0 9990 2 42776 097.3861 354.8963 0013188 337.0476 023.0169 15.21056866074216 Max Valier Sat 1 42778U 17036P 18297.87821598 .00000964 00000-0 45772-4 0 9998 2 42778 097.3889 355.3500 0011846 342.8194 017.2640 15.21565779074229 Pegasus 1 42784U 17036V 18297.91249004 .00001144 00000-0 53126-4 0 9999 2 42784 097.3865 355.4787 0011791 349.7509 010.3485 15.21958197074246 NUDATSat 1 42787U 17036Y 18297.90788998 .00001946 00000-0 86437-4 0 9992 2 42787 097.3892 355.8154 0012406 346.9718 013.1190 15.22669790074104 SUCHAI 1 1 42788U 17036Z 18297.91057291 .00001346 00000-0 61420-4 0 9998 2 42788 097.3867 355.6350 0011362 349.6609 010.4392 15.22277381074321 SKCUBE 1 42789U 17036AA 18297.91409031 .00001240 00000-0 56943-4 0 9999 2 42789 097.3865 355.6198 0011211 349.7321 010.3685 15.22217210074245 VZLUSAT 1 1 42790U 17036AB 18297.83006573 .00001553 00000-0 69619-4 0 9997 2 42790 097.3873 355.7440 0010817 350.1970 009.9054 15.22677896074248 VENTA 1 1 42791U 17036AC 18297.89201399 .00001186 00000-0 54527-4 0 9991 2 42791 097.3864 355.6447 0010868 350.8057 009.2979 15.22251347074231 Robusta 1B 1 42792U 17036AD 18297.93569546 .00001265 00000-0 57752-4 0 9999 2 42792 097.3864 355.7310 0010824 351.0259 009.0783 15.22375223074265 D-SAT 1 42794U 17036AF 18297.84343515 .00000256 00000-0 27886-4 0 9991 2 42794 097.5760 347.4967 0126171 210.1053 149.2873 14.90951381073041 BIRD-J 1 42820U 98067MU 18297.75965133 .00039685 00000-0 26832-3 0 9997 2 42820 051.6323 058.7247 0003272 303.5529 056.5158 15.74631549074244 BIRD-G 1 42821U 98067MV 18297.80760162 .00039056 00000-0 27597-3 0 9990 2 42821 051.6338 059.8070 0003187 305.6274 054.4428 15.73613784074216 BIRD-M 1 42822U 98067MW 18297.75982841 .00039349 00000-0 27192-3 0 9991 2 42822 051.6327 059.4895 0003330 305.5278 054.5410 15.74128717074219 BIRD-B 1 42823U 98067MX 18297.80669995 .00041098 00000-0 28076-3 0 9996 2 42823 051.6347 059.0788 0004984 322.0990 037.9657 15.74367576074227 BIRD-N 1 42824U 98067MY 18297.72684072 .00038212 00000-0 26603-3 0 9999 2 42824 051.6338 060.0700 0005067 320.8193 039.2439 15.73961181074200 TechnoSat 1 42829U 17042E 18297.90061652 .00000065 00000-0 11950-4 0 9996 2 42829 097.5830 195.2708 0015467 124.4500 235.8183 14.90876855069659 TOMSK-TPU 120 1 42910U 98067MZ 18297.60962442 .00021111 00000-0 18576-3 0 9992 2 42910 051.6360 068.7791 0005259 340.5030 127.2881 15.68710809067662 TANYUSHA 1 1 42911U 98067NA 18297.92236407 .00028400 00000-0 22905-3 0 9992 2 42911 051.6363 064.9424 0004593 336.6342 112.7860 15.70638381067729 TANYUSHA 2 1 42912U 98067NB 18297.79837155 .00025470 00000-0 21434-3 0 9995 2 42912 051.6385 067.0718 0004133 345.9662 130.4515 15.69678359067701 SFERA 2 1 42913U 98067NC 18297.89088894 .00173059 22248-4 52762-3 0 9992 2 42913 051.6326 046.6723 0006727 345.2632 014.8045 15.91608286067987 TNS 0-2 1 42914U 98067ND 18297.90640884 .00025694 00000-0 22629-3 0 9996 2 42914 051.6349 068.0555 0004590 337.7076 022.3721 15.68559845067679 QIKCOM-1 1 42983U 98067NF 18297.82233864 .00003966 00000-0 60359-4 0 9990 2 42983 051.6386 087.8639 0003811 326.1912 033.8836 15.57121793056413 AO-91 1 43017U 17073E 18297.50711413 .00000337 00000-0 32237-4 0 9996 2 43017 097.7116 223.2808 0258371 210.3740 148.2287 14.78248623050211 EcAMSat 1 43019U 98067NG 18297.81134224 .00006528 00000-0 90556-4 0 9999 2 43019 051.6399 086.3038 0004438 298.4178 061.6367 15.58416357138756 PICSAT 1 43132U 18004X 18297.82246890 .00001298 00000-0 58288-4 0 9997 2 43132 097.5202 000.7723 0010121 014.7046 345.4483 15.22965351043441 AO-92 1 43137U 18004AC 18297.41293112 .00001010 00000-0 46003-4 0 9990 2 43137 097.5198 000.3855 0009792 018.1403 342.0181 15.22976841043386 TianYi 2 1 43155U 18008A 18297.85792229 .00000535 00000-0 35999-4 0 9998 2 43155 097.5147 010.0734 0019359 062.2500 041.1070 15.10762801042066 Zhou Enlai 1 43156U 18008B 18297.89450942 .00000945 00000-0 61531-4 0 9992 2 43156 097.5186 010.0445 0016434 058.3174 060.4519 15.10239988042059 TianYi 6 1 43158U 18008D 18297.94538791 .00001032 00000-0 67441-4 0 9993 2 43158 097.5146 009.8303 0015090 056.1955 046.6067 15.09920881042035 S-Net G 1 43186U 18014G 18297.80602955 .00000142 00000-0 17568-4 0 9996 2 43186 097.7158 204.5503 0012372 079.6153 280.6462 14.96518164039708 S-Net H 1 43187U 18014H 18297.80587512 .00000137 00000-0 17139-4 0 9996 2 43187 097.7155 204.5443 0012377 079.5814 280.6801 14.96519094039707 S-Net J 1 43188U 18014J 18297.80573457 .00000134 00000-0 16878-4 0 9996 2 43188 097.7157 204.5528 0012366 079.6581 280.6034 14.96519766039708 S-Net K 1 43189U 18014K 18297.80593587 .00000132 00000-0 16717-4 0 9993 2 43189 097.7155 204.5429 0012369 079.6050 280.6565 14.96518548038256 FMN 1 1 43192U 18015A 18297.92705984 .00001716 00000-0 74984-4 0 9996 2 43192 097.3719 064.3143 0017971 050.3529 309.9288 15.23308429040265 Shaonian Xing 1 43199U 18015H 18297.97085584 .00001306 00000-0 56495-4 0 9997 2 43199 097.3502 063.9374 0018951 061.8232 298.4917 15.24061133040305 1KUNS-PF 1 43466U 98067NP 18297.82669689 .00016360 00000-0 21553-3 0 9999 2 43466 051.6389 089.3915 0000471 229.3242 130.7710 15.58578748025899 UBAKUSAT 1 43467U 98067NQ 18297.73275491 .00010254 00000-0 14207-3 0 9998 2 43467 051.6386 090.2672 0002434 248.9721 111.1011 15.57718758025880 Irazu 1 43468U 98067NR 18296.83203993 .00017401 00000-0 22343-3 0 9998 2 43468 051.6383 093.9994 0000558 205.5281 154.5684 15.59212833125737 EnduroSat One 1 43551U 98067NZ 18297.80154469 .00012349 00000-0 17589-3 0 9994 2 43551 051.6381 091.4642 0006036 337.9948 022.0784 15.56736994016104 EQUISat 1 43552U 98067PA 18297.80782611 .00011062 00000-0 15971-3 0 9995 2 43552 051.6383 091.5078 0006299 339.0401 021.0332 15.56495348016067 UiTMSat 1 1 43589U 98067PD 18297.91170819 .00012831 00000-0 18685-3 0 9998 2 43589 051.6381 091.4478 0005652 348.3924 011.6936 15.56095099011815 Maya 1 1 43590U 98067PE 18296.49749998 .00010364 00000-0 15234-3 0 9998 2 43590 051.6377 098.5037 0005663 344.4145 015.6671 15.56088599011520 Bhutan 1 1 43591U 98067PF 18297.39474277 .00011760 00000-0 17150-3 0 9994 2 43591 051.6380 093.9960 0005832 349.1615 010.9250 15.56150484011660 SiriusSat 1 1 43595U 98067PG 18297.93050696 .00011513 00000-0 17087-3 0 9998 2 43595 051.6383 091.5694 0003352 298.0940 061.9712 15.55701463010928 SiriusSat 2 1 43596U 98067PH 18297.93683394 .00011232 00000-0 16778-3 0 9990 2 43596 051.6390 091.6184 0003961 301.1487 058.9116 15.55551811010924 Tanusha-3 1 43597U 98067PJ 18297.80320610 .00013802 00000-0 20262-3 0 9994 2 43597 051.6371 092.2132 0003455 314.2512 045.8195 15.55806676010908 SurfSat 1 43614U 18070B 18297.92802710 .00002478 00000-0 69738-4 0 9998 2 43614 093.0284 265.7948 0018403 130.2049 230.0817 15.36380062006047 CP-7 DAVE 1 43615U 18070C 18297.86266983 .00002385 00000-0 67116-4 0 9993 2 43615 093.0278 265.7693 0018450 130.2287 230.0591 15.36384256006031 ELFIN-B 1 43616U 18070D 18297.60040856 -.00000006 00000-0 00000-0 0 9999 2 43616 093.0225 265.6361 0019325 134.7952 225.4961 15.36464085005997 ELFIN-A 1 43617U 18070E 18297.59972191 -.00000006 00000-0 00000-0 0 9994 2 43617 093.0299 265.6739 0018488 131.8064 228.4850 15.36501491005992 STARS-Me Mother 1 43640U 98067PQ 18297.90800466 .00008172 00000-0 12753-3 0 9996 2 43640 051.6387 092.1728 0005418 291.7519 068.2895 15.54775677002846 /EX
